Location: Be?i?
(36.9044°N, 30.1006°E)
Time: 13:10:49
(UTC+00:00)

Cosmos 1602 Rocket - Pass Details

Date: 05 August 2024
Orbit: 601 x 627 km, 82.5° (Epoch: 08 September)

Event Time Altitude Azimuth Distance (km) Brightness Sun altitude
Exits shadow 19:48:47 45° 282° (WNW) 829 4.4 -27.5°
Drops below altitude 10° 19:52:52 10° 353° (N) 1,949 6.8 -28.0°
Sets 19:55:11 0° 0° (N) 2,857 7.7 -28.2°
